This demonstration page uses our WeatherBlox Daily Observations layout. Learn more.

39.92423, -83.80882

Hourly Observations for September 8, 2017

Temp ( °F °C ) Dew Point ( °F °C ) Humidity (%) Winds ( mph kmh ) Pressure ( in mb ) Visibility ( mi km ) Precip ( " mm )
12:56 am 00:56 Mostly Cloudy 54 12.2 50 10 87 87 SSW 6 9 30.12 1020 10 16.09344 0 0
1:56 am 01:56 Mostly Cloudy 54 12.2 50 10 87 87 SW 7 11 30.12 1020 10 16.09344 0 0
2:56 am 02:56 Partly Cloudy 52 11.1 49 9.4 89 89 SW 7 11 30.12 1020 10 16.09344 0 0
3:56 am 03:56 Mostly Clear 51 10.6 48 8.9 89 89 SW 6 9 30.12 1020 10 16.09344 0 0
4:56 am 04:56 Clear 50 10 48 8.9 93 93 SW 6 9 30.15 1021 10 16.09344 0 0
5:56 am 05:56 Clear 49 9.4 47 8.3 93 93 SW 6 9 30.15 1021 10 16.09344 0 0
6:56 am 06:56 Clear 48 8.9 47 8.3 96 96 SSW 3 6 30.15 1021 10 16.09344 0 0
7:56 am 07:56 Sunny 49 9.4 48 8.9 97 97 WSW 5 7 30.21 1023 10 16.09344 0 0
8:56 am 08:56 Sunny 56 13.3 51 10.6 84 84 W 6 9 30.21 1023 10 16.09344 0 0
9:56 am 09:56 Sunny 59 15 51 10.6 75 75 W 7 11 30.21 1023 10 16.09344 0 0
10:56 am 10:56 Sunny 63 17.2 53 11.7 70 70 N 5 7 30.24 1024 10 16.09344 0 0
11:56 am 11:56 Sunny 64 17.8 51 10.6 63 63 WNW 5 7 30.24 1024 10 16.09344 0 0
12:56 pm 12:56 Cloudy 66 18.9 50 10 56 56 N 5 7 30.24 1024 10 16.09344 0 0
1:56 pm 13:56 Cloudy 64 17.8 48 8.9 56 56 NW 8 13 30.27 1025 10 16.09344 0 0
2:56 pm 14:56 Cloudy 63 17.2 52 11.1 68 68 NNW 6 9 30.24 1024 10 16.09344 0 0
3:56 pm 15:56 Cloudy 66 18.9 50 10 56 56 N 6 9 30.24 1024 10 16.09344 0 0
4:56 pm 16:56 Sunny 68 20 52 11.1 57 57 NNE 8 13 30.24 1024 10 16.09344 0 0
5:56 pm 17:56 Mostly Cloudy 66 18.9 51 10.6 59 59 NE 3 6 30.24 1024 10 16.09344 0 0
6:56 pm 18:56 Mostly Cloudy 64 17.8 54 12.2 70 70 E 3 6 30.24 1024 10 16.09344 0 0
7:56 pm 19:56 Cloudy 60 15.6 55 12.8 84 84 ENE 5 7 30.24 1024 10 16.09344 0 0
8:56 pm 20:56 Cloudy 60 15.6 55 12.8 84 84 E 5 7 30.24 1024 10 16.09344 0 0
9:56 pm 21:56 Cloudy 60 15.6 55 12.8 84 84 ENE 3 6 30.27 1025 10 16.09344 0 0
10:56 pm 22:56 Cloudy 58 14.4 56 13.3 93 93 Calm 30.27 1025 10 16.09344 0.001 0.001
11:56 pm 23:56 Cloudy 58 14.4 56 13.3 93 93 N 5 7 30.3 1026 10 16.09344 0.001 0.001

Powered by AerisWeather